Погода в селе Белиджи

Россия / Республика Дагестан     41°53′27″N   48°24′48″E
темп.,
°C
ветер,
м/с
пор.,
м/с
влажн.,
%
обл.,
%
осадки,
мм/ч
давл.,
гПа
погр.,
м
11 апреля, вс
вс1100:00+10сз447845 0.0 102047
03:00+9сз55805 0.0 102061
06:00+9сз44806 0.0 102055
09:00+9с22775 0.0 101927
12:00+9ссв3379100 0.0 101852
15:00+10сз1180100 0.0 101631
18:00+10вюв1179100 0.0 101511
21:00+11ююв1177100 0.0 101410
12 апреля, пн
пн1200:00+10юв4479100 0.0 101426
03:00+10вюв2281100 0.0 101411
06:00+10вюв1181100 0.0 101510
09:00+10с1188100 0.0 101725
12:00+9с449113 0.0 101881
15:00+10ссв45898 0.0 101882
18:00+10с55870 0.0 101960
21:00+9ссз22890 0.0 102116
13 апреля, вт
вт1300:00+10зсз22870 0.0 102011
03:00+10св118477 0.0 102010
06:00+10юв1185100 0.0 102110
09:00+10св1183100 0.0 102121
12:00+10всв33865 0.0 102154
15:00+10вюв34851 0.0 101958
18:00+11в11760 0.0 101911
21:00+11ююз22725 0.0 101910
14 апреля, ср
ср1400:00+11с11714 0.0 101710
03:00+10юв11785 0.0 101510
06:00+10ююв2274100 0.0 101410
09:00+10ссв2279100 0.0 101521
12:00+9ссз798799 0.0 1014164
15:00+9ссз710882 0.0 1014160
18:00+10сз8138543 0.3 1015175
21:00+10сз81485100 0.6 1016184
15 апреля, чт
чт1500:00+10сз4590100 0.0 101675
03:00+11зсз33856 0.0 101515
06:00+10ссз2285100 0.0 101512
09:00+11ссв22806 0.0 101521
12:00+10ссз349020 0.0 101565
15:00+11ссз22871 0.0 101436
18:00+11зсз22842 0.0 101410
21:00+12юз33741 0.0 101411